| time (UTC) | temp F | wind direction | speed knots | gust knots | rain 1hr in | rain 24hr in | rain mn in | humidity % | barometer mb |
| 20260503193549 | 70 | 60 | 0.9 | 3.5 | 0.00 | 0.00 | 0.00 | 59 | 1007.5 |
| 20260503192553 | 70 | 54 | 0.9 | 3.5 | 0.00 | 0.00 | 0.00 | 59 | 1007.5 |
| 20260503192034 | 70 | 122 | 1.7 | 3.5 | 0.00 | 0.00 | 0.00 | 61 | 1007.5 |
| 20260503191253 | 69 | 44 | 1.7 | 3.5 | 0.00 | 0.00 | 0.00 | 61 | 1007.4 |
| 20260503190557 | 69 | 68 | 0.0 | 3.5 | 0.00 | 0.00 | 0.00 | 61 | 1007.4 |
| 20260503190107 | 69 | 248 | 0.0 | 3.5 | 0.00 | 0.00 | 0.00 | 62 | 1007.5 |
| 20260503185552 | 69 | 299 | 0.9 | 3.5 | 0.00 | 0.00 | 0.00 | 63 | 1007.5 |
| 20260503185045 | 70 | 99 | 1.7 | 3.5 | 0.00 | 0.00 | 0.00 | 63 | 1007.6 |
| 20260503184535 | 69 | 82 | 0.9 | 5.2 | 0.00 | 0.00 | 0.00 | 63 | 1007.5 |
| 20260503184032 | 69 | 139 | 1.7 | 5.2 | 0.00 | 0.00 | 0.00 | 65 | 1007.6 |
| 20260503183048 | 70 | 98 | 1.7 | 4.3 | 0.00 | 0.00 | 0.00 | 66 | 1007.6 |
| 20260503182536 | 70 | 67 | 0.9 | 4.3 | 0.00 | 0.00 | 0.00 | 64 | 1007.7 |
| 20260503181624 | 70 | 139 | 0.9 | 3.5 | 0.00 | 0.00 | 0.00 | 61 | 1007.7 |
| 20260503180736 | 71 | 72 | 0.9 | 2.6 | 0.00 | 0.00 | 0.00 | 62 | 1007.7 |
| 20260503180110 | 71 | 117 | 0.9 | 2.6 | 0.00 | 0.00 | 0.00 | 63 | 1007.8 |
| 20260503175554 | 71 | 107 | 0.0 | 2.6 | 0.00 | 0.00 | 0.00 | 63 | 1007.8 |
| 20260503175033 | 72 | 108 | 0.9 | 2.6 | 0.00 | 0.00 | 0.00 | 61 | 1007.9 |
| 20260503174056 | 73 | 139 | 0.0 | 1.7 | 0.00 | 0.00 | 0.00 | 60 | 1008.1 |
| 20260503173101 | 71 | 2 | 0.0 | 2.6 | 0.00 | 0.00 | 0.00 | 61 | 1008.3 |
| 20260503172543 | 70 | 162 | 0.0 | 2.6 | 0.00 | 0.00 | 0.00 | 61 | 1008.4 |
| 20260503171544 | 70 | 121 | 0.0 | 2.6 | 0.00 | 0.00 | 0.00 | 61 | 1008.4 |
| 20260503170607 | 68 | 352 | 0.0 | 2.6 | 0.00 | 0.00 | 0.00 | 63 | 1008.7 |
| 20260503140232 | 51 | 259 | 0.0 | 0.9 | 0.00 | 0.00 | 0.00 | 87 | 1008.7 |
| 20260503054557 | 58 | 213 | 0.0 | 0.0 | 0.00 | 0.01 | 0.01 | 73 | 1008.2 |
| 20260503053604 | 58 | 218 | 0.0 | 0.0 | 0.00 | 0.01 | 0.01 | 73 | 1008.1 |
| 20260503052636 | 59 | 228 | 0.0 | 0.0 | 0.00 | 0.01 | 0.01 | 77 | 1008.1 |
| 20260503041553 | 59 | 228 | 0.0 | 0.0 | 0.00 | 0.01 | 0.01 | 76 | 1007.9 |
| 20260503040604 | 60 | 228 | 0.0 | 0.0 | 0.00 | 0.01 | 0.01 | 75 | 1007.8 |
| 20260503040055 | 60 | 228 | 0.0 | 0.0 | 0.00 | 0.01 | 0.01 | 74 | 1007.7 |
| 20260503035103 | 60 | 228 | 0.0 | 0.0 | 0.00 | 0.01 | 0.01 | 73 | 1007.6 |
| 20260503034056 | 61 | 229 | 0.0 | 0.0 | 0.00 | 0.01 | 0.01 | 72 | 1007.3 |
| 20260503033552 | 61 | 229 | 0.0 | 0.0 | 0.00 | 0.01 | 0.01 | 72 | 1007.3 |
| 20260503033057 | 62 | 230 | 0.0 | 0.0 | 0.00 | 0.01 | 0.01 | 71 | 1007.2 |
| 20260503032055 | 63 | 231 | 0.0 | 0.0 | 0.00 | 0.01 | 0.01 | 70 | 1007.2 |
| 20260503031053 | 64 | 230 | 0.0 | 0.0 | 0.00 | 0.01 | 0.01 | 69 | 1007.1 |
| 20260503030554 | 64 | 230 | 0.0 | 0.0 | 0.00 | 0.01 | 0.01 | 68 | 1007.1 |
| 20260503025554 | 65 | 231 | 0.0 | 0.0 | 0.00 | 0.01 | 0.01 | 66 | 1007.1 |
| 20260503024608 | 66 | 231 | 0.0 | 0.0 | 0.00 | 0.01 | 0.01 | 63 | 1007.0 |
| 20260503023551 | 68 | 231 | 0.0 | 0.0 | 0.00 | 0.01 | 0.01 | 59 | 1007.1 |
| 20260503022934 | 73 | 231 | 0.0 | 0.0 | 0.00 | 0.01 | 0.01 | 54 | 1007.1 |
| 20260503022317 | 69 | 231 | 0.0 | 0.0 | 0.00 | 0.01 | 0.01 | 65 | 1009.2 |
| 20260503021651 | 67 | 231 | 0.0 | 0.0 | 0.00 | 0.01 | 0.01 | 73 | 1010.7 |
| 20260503021033 | 53 | 231 | 0.0 | 0.0 | 0.00 | 0.01 | 0.01 | 95 | 1011.7 |
| 20260503020415 | 53 | 231 | 0.0 | 0.0 | 0.00 | 0.01 | 0.01 | 90 | 1010.3 |
| 20260503015751 | 56 | 231 | 0.0 | 0.0 | 0.00 | 0.01 | 0.01 | 82 | 1010.0 |
| 20260503015128 | 57 | 231 | 0.0 | 0.0 | 0.00 | 0.01 | 0.01 | 84 | 1008.8 |
| 20260503014506 | 65 | 231 | 0.0 | 0.0 | 0.00 | 0.01 | 0.01 | 66 | 1008.7 |
| 20260503013838 | 67 | 231 | 0.0 | 0.0 | 0.00 | 0.01 | 0.01 | 68 | 1010.0 |
| 20260503013152 | 57 | 231 | 0.0 | 0.0 | 0.00 | 0.01 | 0.01 | 83 | 1011.3 |